#timestamp,LO_Frequency,Hit,StdDev 
1505811615.7,286047000.9,N
1505811635.6,286047003.8,Y
1505811655.4,286047004.4,P
1505811675.2,286047002.5,N
1505811695.0,286047001.7,N
1505811695.9,286047001.7,N
1505811715.8,286046999.9,N
1505811735.6,286047004.3,Y
1505811755.5,286047001.3,P
1505811775.3,286047000.6,N
1505811795.1,286047000.1,N
1505811815.8,286046999.2,N
1505811835.7,286046996.7,Y
1505811855.5,286046995.0,P
1505811875.3,286046996.9,N
1505811895.2,286046998.8,N
1505811915.0,286046999.3,N
1505811915.9,286046999.3,N
1505811935.7,286047003.5,N
1505811955.6,286047002.3,N
1505811975.4,286046998.9,N
1505811995.2,286046997.6,N
1505812015.1,286046995.4,N
1505812016.0,286046995.4,N
1505812035.8,286046995.7,N
1505812055.6,286046998.0,N
1505812075.5,286046995.0,N
1505812095.3,286046992.4,N
1505812115.1,286046996.7,N
1505812135.9,286046997.4,N
1505812155.7,286046999.0,N
1505812175.5,286047001.2,N
1505812195.3,286047001.0,N
1505812215.2,286046999.2,N
1505812235.0,286046999.2,N
1505812235.9,286046999.2,N
1505812255.7,286047001.2,N
1505812275.6,286047002.7,N
1505812295.4,286047003.9,N
1505812315.2,286047004.4,N
1505812335.1,286047003.6,N
1505812336.0,286047003.6,N
1505812355.8,286047002.7,N
1505812375.6,286046999.6,N
1505812395.5,286046999.6,N
1505812415.3,286046997.8,N
1505812435.1,286046996.6,N
1505812455.9,286046998.0,N
1505812475.7,286046998.1,N
1505812495.5,286046998.7,N
1505812515.4,286046998.0,N
1505812535.2,286046995.1,N
1505812555.0,286046997.7,N
1505812555.9,286046997.7,N
1505812575.7,286046997.1,N
1505812595.6,286046998.2,N
1505812615.4,286047001.0,N
1505812635.2,286047002.1,N
1505812655.1,286047005.3,N
1505812656.0,286047005.3,N
1505812675.8,286047003.9,N
1505812695.6,286047005.8,N
1505812715.5,286047003.6,N
1505812735.3,286047001.3,N
1505812755.1,286047002.2,N
1505812775.9,286046999.9,N
1505812795.7,286047000.0,N
1505812815.5,286046998.7,N
1505812835.4,286046999.0,N
1505812855.2,286047001.6,N
1505812875.0,286047003.1,N
1505812875.9,286047003.1,N
1505812895.8,286047001.8,N
1505812915.6,286047000.8,N
1505812935.4,286046998.1,N
1505812955.2,286046998.7,N
1505812975.1,286047002.7,N
1505812976.0,286047002.7,N
1505812995.8,286047003.9,N
1505813015.6,286047004.2,N
1505813035.5,286047000.0,N
1505813055.3,286046998.6,N
1505813075.1,286046996.7,N
1505813095.9,286046997.8,N
1505813115.7,286046994.9,N
1505813135.5,286046997.9,N
1505813155.4,286046997.3,N
1505813175.2,286046994.9,N
1505813195.0,286046996.9,N
1505813195.9,286046996.9,N
1505813215.8,286046998.0,N
1505813235.6,286046996.8,N
1505813255.4,286047000.8,N
1505813275.3,286047002.3,N
1505813295.1,286047002.4,N
1505813296.0,286047002.4,N
1505813315.8,286046999.4,N
1505813335.7,286046999.0,N
1505813355.5,286046996.9,N
1505813375.3,286047001.1,N
1505813395.1,286047001.1,N
1505813415.9,286046998.3,N
1505813435.7,286046998.1,N
1505813455.5,286046997.6,N
1505813475.4,286046997.5,N
1505813495.2,286046993.9,N
1505813515.0,286046996.0,N
1505813515.9,286046996.0,N
1505813535.8,286046997.6,N
1505813555.6,286046995.1,N
1505813575.4,286046993.3,N
1505813595.3,286046995.5,N
1505813615.1,286046996.9,N
1505813616.0,286046996.9,N
1505813635.8,286046999.8,N
1505813655.7,286046996.9,N
1505813675.5,286046997.1,N
1505813695.3,286047000.9,N
1505813715.2,286046999.4,N
1505813735.9,286047002.5,N
1505813755.7,286047000.8,N
1505813775.5,286047000.2,N
1505813795.4,286046999.9,N
1505813815.2,286047000.3,N
1505813835.0,286047004.4,N
1505813835.9,286047004.4,N
1505813855.8,286047001.6,N
1505813875.6,286046995.4,N
1505813895.4,286046997.9,N
1505813915.3,286046998.6,N
1505813935.1,286046999.2,N
1505813955.8,286046999.3,N
1505813975.7,286047001.2,N
1505813995.5,286047000.9,N
1505814015.3,286046997.9,N
1505814035.2,286046999.3,N
1505814055.9,286046999.3,N
1505814075.7,286047000.7,N
1505814095.6,286047000.3,N
1505814115.4,286047007.5,N
1505814135.2,286047002.4,N
1505814155.0,286046999.0,N
1505814156.0,286046999.0,N
1505814175.8,286046999.2,N
1505814195.6,286046998.4,N
1505814215.4,286046997.8,N
1505814235.3,286046995.7,N
1505814255.1,286046995.3,N
1505814275.8,286046996.7,N
1505814295.7,286046995.8,N
1505814315.5,286046992.6,N
1505814335.3,286046992.9,N
1505814355.2,286046992.1,N
1505814375.9,286046997.7,N
1505814395.7,286046996.7,N
1505814415.6,286046997.9,N
1505814435.4,286046997.3,N
1505814455.2,286046997.1,N
1505814475.0,286046999.2,N
1505814476.0,286046999.2,N
1505814495.8,286047002.1,N
1505814515.6,286047003.4,N
1505814535.4,286047002.0,N
1505814555.3,286047000.0,N
1505814575.1,286047002.9,N
1505814595.8,286047004.4,N
1505814615.7,286047000.1,N
1505814635.5,286047002.0,N
1505814655.3,286046996.9,N
1505814675.2,286047000.3,N
1505814695.9,286046996.9,N
1505814715.7,286046995.1,N
1505814735.6,286046997.9,N
1505814755.4,286046995.2,N
1505814775.2,286046994.4,N
1505814795.1,286046990.1,Y
1505814796.0,286046990.1,P
1505814815.8,286046999.1,N
1505814835.6,286047002.6,N
1505814855.5,286046998.2,N
1505814875.3,286047004.4,N
1505814895.1,286047001.6,N
1505814915.9,286047002.0,N
1505814935.7,286046998.3,N
1505814955.5,286047001.0,N
1505814975.3,286046996.9,N
1505814995.2,286047000.4,N
1505815015.0,286047000.1,N
1505815015.9,286047000.1,N
1505815035.7,286047000.5,N
1505815055.6,286046996.6,N
1505815075.4,286046999.4,N
1505815095.2,286046993.3,N
1505815115.1,286046993.8,N
1505815116.0,286046993.8,N
1505815135.8,286046994.9,N
1505815155.6,286046998.2,N
1505815175.5,286046997.0,N
1505815195.3,286046996.1,N
